Total_Precipitation_Accumulation
0.08 0.08 0.07 0.06 0.04 0.03 0.02 0.03 0.04 0.02 0.02 0.02 0.02 0.02 0.01 0.02 0.02 0.02 0.01 0.01 0.01 0.01 0.01 0.01 0.01 0.02 0.00 0.00 0.00 0.00 0.00 0.00 0.00 0.00 0.00 0.00 0.00 0.00 0.00 0.00 0.00 0.00 0.00 0.00 0.00 0.00 0.03
0.16 0.13 0.10 0.08 0.07 0.03 0.04 0.04 0.04 0.03 0.02 0.02 0.02 0.02 0.01 0.02 0.02 0.02 0.01 0.01 0.01 0.01 0.01 0.01 0.01 0.02 0.00 0.00 0.00 0.00 0.00 0.00 0.00 0.00 0.00 0.00 0.00 0.00 0.00 0.00 0.00 0.00 0.00 0.00 0.00 0.00 0.01
0.22 0.18 0.17 0.16 0.13 0.09 0.06 0.05 0.04 0.03 0.02 0.02 0.03 0.02 0.02 0.02 0.02 0.01 0.01 0.01 0.01 0.01 0.01 0.01 0.01 0.02 0.00 0.00 0.00 0.00 0.00 0.00 0.00 0.00 0.00 0.00 0.00 0.00 0.00 0.00 0.00 0.00 0.00 0.00 0.00 0.00 0.02
0.35 0.33 0.31 0.29 0.25 0.19 0.13 0.10 0.08 0.05 0.03 0.03 0.02 0.02 0.02 0.01 0.01 0.01 0.01 0.01 0.01 0.01 0.01 0.01 0.01 0.01 0.00 0.00 0.00 0.00 0.00 0.00 0.00 0.00 0.00 0.00 0.00 0.00 0.00 0.00 0.00 0.00 0.00 0.01 0.01 0.00 0.01
0.44 0.37 0.31 0.31 0.27 0.22 0.16 0.12 0.11 0.07 0.05 0.04 0.02 0.02 0.02 0.01 0.02 0.02 0.01 0.01 0.01 0.01 0.01 0.01 0.00 0.00 0.00 0.00 0.00 0.00 0.00 0.00 0.00 0.00 0.00 0.00 0.00 0.00 0.00 0.00 0.00 0.00 0.00 0.00 0.01 0.01 0.01
0.59 0.48 0.40 0.37 0.30 0.25 0.21 0.18 0.15 0.11 0.10 0.07 0.04 0.02 0.02 0.03 0.03 0.02 0.01 0.01 0.01 0.01 0.01 0.00 0.00 0.00 0.00 0.00 0.00 0.00 0.00 0.00 0.00 0.00 0.00 0.00 0.00 0.00 0.00 0.00 0.01 0.00 0.00 0.00 0.00 0.00 0.00
0.69 0.55 0.45 0.38 0.27 0.21 0.17 0.17 0.14 0.11 0.08 0.06 0.03 0.02 0.02 0.03 0.04 0.02 0.00 0.00 0.00 0.00 0.00 0.00 0.00 0.00 0.00 0.00 0.00 0.00 0.00 0.00 0.00 0.01 0.00 0.00 0.00 0.00 0.00 0.00 0.00 0.00 0.00 0.00 0.00 0.00 0.00
0.79 0.59 0.46 0.36 0.27 0.22 0.18 0.17 0.12 0.09 0.06 0.05 0.03 0.02 0.02 0.04 0.05 0.02 0.01 0.00 0.00 0.00 0.00 0.00 0.00 0.00 0.00 0.00 0.00 0.00 0.00 0.00 0.01 0.05 0.03 0.00 0.00 0.00 0.00 0.00 0.00 0.00 0.00 0.00 0.00 0.00 0.00
0.76 0.57 0.45 0.40 0.32 0.25 0.18 0.16 0.13 0.09 0.06 0.04 0.03 0.02 0.03 0.05 0.04 0.01 0.00 0.00 0.00 0.00 0.01 0.00 0.00 0.00 0.00 0.00 0.00 0.00 0.00 0.00 0.00 0.02 0.07 0.02 0.00 0.00 0.00 0.00 0.00 0.00 0.00 0.00 0.00 0.00 0.00
0.91 0.72 0.57 0.49 0.39 0.27 0.23 0.20 0.14 0.09 0.07 0.06 0.04 0.03 0.04 0.06 0.01 0.00 0.00 0.00 0.00 0.00 0.01 0.00 0.00 0.00 0.00 0.00 0.00 0.00 0.00 0.00 0.00 0.01 0.06 0.08 0.00 0.00 0.00 0.00 0.00 0.00 0.00 0.00 0.00 0.00 0.00
0.92 0.77 0.63 0.55 0.41 0.31 0.24 0.20 0.13 0.08 0.06 0.06 0.05 0.05 0.07 0.06 0.02 0.01 0.00 0.00 0.00 0.02 0.01 0.00 0.00 0.00 0.00 0.00 0.00 0.00 0.00 0.00 0.00 0.00 0.05 0.06 0.03 0.02 0.00 0.00 0.00 0.01 0.00 0.00 0.00 0.00 0.01
0.74 0.63 0.57 0.53 0.40 0.29 0.23 0.17 0.12 0.10 0.09 0.10 0.08 0.09 0.14 0.08 0.04 0.01 0.01 0.02 0.09 0.05 0.00 0.00 0.00 0.00 0.00 0.00 0.00 0.00 0.00 0.00 0.00 0.00 0.00 0.00 0.01 0.01 0.01 0.00 0.01 0.00 0.01 0.00 0.00 0.00 0.02
0.77 0.67 0.52 0.39 0.30 0.24 0.22 0.19 0.16 0.13 0.12 0.13 0.10 0.13 0.16 0.06 0.03 0.01 0.02 0.18 0.22 0.03 0.00 0.00 0.00 0.00 0.00 0.00 0.00 0.00 0.00 0.00 0.00 0.00 0.00 0.00 0.00 0.00 0.00 0.00 0.01 0.02 0.07 0.06 0.06 0.03 0.01
0.60 0.54 0.40 0.30 0.25 0.24 0.24 0.21 0.17 0.16 0.15 0.19 0.15 0.21 0.15 0.07 0.03 0.06 0.15 0.34 0.12 0.00 0.00 0.00 0.00 0.00 0.00 0.00 0.00 0.00 0.00 0.00 0.00 0.00 0.00 0.01 0.02 0.00 0.00 0.00 0.01 0.01 0.05 0.09 0.14 0.09 0.06
0.43 0.45 0.38 0.31 0.25 0.23 0.21 0.19 0.17 0.17 0.20 0.25 0.32 0.29 0.22 0.07 0.03 0.10 0.39 0.44 0.04 0.01 0.00 0.00 0.00 0.00 0.00 0.00 0.00 0.00 0.00 0.00 0.00 0.00 0.01 0.02 0.00 0.00 0.00 0.00 0.02 0.09 0.10 0.07 0.18 0.11 0.09
0.47 0.40 0.37 0.34 0.33 0.23 0.19 0.19 0.25 0.25 0.27 0.38 0.48 0.46 0.16 0.06 0.12 0.41 0.66 0.26 0.00 0.00 0.00 0.00 0.00 0.00 0.00 0.00 0.00 0.00 0.01 0.02 0.03 0.01 0.00 0.04 0.08 0.01 0.00 0.01 0.00 0.08 0.20 0.47 0.54 0.34 0.16
0.64 0.42 0.35 0.35 0.37 0.34 0.28 0.25 0.26 0.37 0.36 0.57 1.00 0.92 0.18 0.10 0.58 0.93 0.62 0.10 0.00 0.00 0.00 0.00 0.00 0.00 0.00 0.00 0.00 0.00 0.04 0.13 0.08 0.06 0.02 0.02 0.06 0.06 0.04 0.03 0.04 0.10 0.28 0.47 0.43 0.16 0.21
0.77 0.71 0.59 0.49 0.37 0.38 0.43 0.42 0.38 0.45 0.64 1.10 1.70 1.16 0.28 0.34 0.88 0.62 0.21 0.02 0.00 0.00 0.00 0.00 0.00 0.00 0.00 0.00 0.00 0.00 0.00 0.03 0.02 0.04 0.10 0.14 0.12 0.05 0.01 0.00 0.00 0.06 0.12 0.27 0.54 0.34 0.22
0.73 0.62 0.65 0.85 0.76 0.62 0.60 0.66 0.55 0.57 0.91 1.46 2.11 1.05 0.83 0.78 1.00 0.32 0.11 0.05 0.01 0.00 0.00 0.01 0.00 0.01 0.01 0.00 0.03 0.01 0.01 0.01 0.01 0.04 0.10 0.08 0.19 0.17 0.09 0.11 0.08 0.09 0.16 0.24 0.40 0.51 0.41
0.77 0.54 0.44 0.63 0.75 0.83 0.89 0.85 0.83 0.82 1.14 1.92 2.62 1.80 1.86 1.22 0.31 0.36 0.47 0.24 0.06 0.05 0.09 0.09 0.03 0.05 0.05 0.07 0.05 0.04 0.02 0.03 0.05 0.06 0.12 0.14 0.08 0.10 0.13 0.22 0.29 0.20 0.14 0.19 0.57 0.81 0.49
0.80 0.65 0.47 0.55 0.62 0.79 0.89 1.11 1.13 1.18 1.48 2.99 3.77 1.48 0.80 0.88 0.41 0.21 0.29 0.31 0.18 0.21 0.16 0.08 0.21 0.26 0.20 0.15 0.13 0.10 0.11 0.09 0.10 0.09 0.20 0.32 0.20 0.08 0.04 0.02 0.10 0.19 0.18 0.16 0.26 0.31 0.41
0.85 0.71 0.56 0.55 0.57 0.78 1.00 1.03 1.22 1.48 2.13 4.15 3.63 0.92 0.29 0.16 0.19 0.28 0.35 0.19 0.10 0.13 0.14 0.20 0.27 0.10 0.07 0.13 0.14 0.21 0.24 0.26 0.30 0.31 0.37 0.54 0.38 0.14 0.07 0.03 0.03 0.03 0.04 0.20 0.22 0.16 0.18
0.83 0.71 0.63 0.56 0.52 0.62 0.94 1.08 1.18 1.60 3.09 5.02 2.91 0.71 0.59 0.36 0.17 0.28 0.21 0.14 0.13 0.07 0.11 0.14 0.21 0.13 0.07 0.17 0.18 0.22 0.17 0.20 0.25 0.35 0.48 0.52 0.67 0.47 0.21 0.06 0.05 0.03 0.00 0.04 0.12 0.19 0.31
0.68 0.66 0.65 0.59 0.52 0.53 0.74 1.05 1.13 1.62 2.68 3.08 2.12 0.91 1.22 0.86 0.26 0.13 0.07 0.08 0.11 0.09 0.10 0.06 0.16 0.43 0.24 0.07 0.10 0.16 0.25 0.20 0.22 0.24 0.34 0.56 0.50 0.56 0.37 0.16 0.23 0.03 0.00 0.01 0.09 0.18 0.24
0.57 0.57 0.70 0.74 0.66 0.57 0.63 0.93 1.05 1.34 1.77 1.87 1.73 1.40 1.42 0.92 0.22 0.10 0.09 0.12 0.12 0.19 0.17 0.11 0.09 0.22 0.24 0.20 0.33 0.29 0.23 0.29 0.22 0.22 0.25 0.33 0.49 0.59 0.54 0.48 0.21 0.08 0.07 0.06 0.08 0.20 0.06
0.60 0.64 0.70 0.79 0.71 0.64 0.58 0.83 1.04 1.06 1.31 1.53 1.43 1.43 2.25 1.63 0.52 0.10 0.15 0.16 0.22 0.24 0.33 0.22 0.34 0.31 0.33 0.59 0.70 0.54 0.35 0.23 0.23 0.26 0.18 0.31 0.40 0.67 0.45 0.63 0.52 0.65 0.21 0.04 0.04 0.16 0.03
0.73 0.70 0.76 0.79 0.68 0.65 0.58 0.72 0.89 0.79 0.93 1.30 1.37 1.29 2.44 2.48 0.64 0.26 0.29 0.31 0.38 0.38 0.39 0.42 0.56 0.46 0.55 0.79 0.95 0.95 0.54 0.23 0.35 0.45 0.30 0.27 0.32 0.38 0.39 0.55 0.54 0.37 0.11 0.01 0.11 0.26 0.02
0.80 0.81 0.88 0.94 0.88 0.71 0.66 0.59 0.76 0.73 0.84 1.22 1.19 1.26 2.02 2.04 0.68 0.47 0.29 0.23 0.25 0.34 0.59 0.58 0.91 0.89 0.64 0.63 0.53 0.61 0.71 0.37 0.51 0.69 0.42 0.38 0.36 0.35 0.44 0.62 0.48 0.04 0.07 0.16 0.26 0.08 0.02
0.68 0.72 0.83 0.76 0.88 0.72 0.72 0.69 0.78 0.89 1.03 1.25 1.35 1.06 1.50 2.11 1.14 0.47 0.25 0.15 0.07 0.06 0.19 0.44 0.65 0.70 0.76 0.61 0.36 0.35 0.42 0.45 0.53 0.61 0.61 0.97 0.65 0.81 0.51 0.47 0.20 0.10 0.12 0.12 0.07 0.13 0.12